Location: Cuero de Venado
(32.4212°N, 116.9222°W)
Time: 14:56:41
(UTC+00:00)

Daily predictions for brighter satellites

Satellite Brightness Start Highest point End
(mag) Time Altitude Azimuth Time Altitude Azimuth Time Altitude Azimuth
SJ 16-02 3.8 12:01:06 10° SSE 12:04:24 21° E 12:07:43 10° NE
SL-4 R/B 3.5 12:28:17 29° E 12:28:17 29° E 12:30:24 10° ENE
Cosmos 2279 Rocket 4.4 12:26:19 10° N 12:32:26 62° E 12:38:32 10° SSE
Cosmos 836 Rocket 4.4 12:31:50 58° N 12:32:52 82° ENE 12:38:03 10° SSE
Cosmos 1151 Rocket 3.0 12:37:31 78° NE 12:37:43 82° E 12:42:04 10° S
H-2A R/B (2) 3.2 12:36:46 26° SSW 12:38:44 42° SSE 12:50:57 10° E
CZ-2C R/B 3.8 12:34:27 10° SE 12:39:35 42° ENE 12:44:37 10° N
MOS 1-B Rocket 4.1 12:36:13 10° SSE 12:42:33 72° ENE 12:48:15 10° N
BREEZE-M DEB 3.3 12:44:32 46° NE 12:44:32 46° NE 12:48:20 10° NE
BREEZE-M DEB (TANK) 3.6 12:47:05 48° WNW 12:48:22 73° SW 12:52:38 10° SE
Cosmos 1777 Rocket 3.9 12:44:10 10° SSW 12:49:22 87° ESE 12:54:37 10° NNE
Cosmos 1634 Rocket 4.1 12:51:51 30° NNW 12:54:40 50° W 13:00:35 10° SSW
BREEZE-M DEB (TANK) 4.0 12:47:51 21° NW 12:59:26 89° NE 13:04:19 10° SE
Meteor 1-10 Rocket 4.3 12:56:30 10° N 13:02:03 78° E 13:07:37 10° S
CZ-4B R/B 4.0 12:57:43 10° N 13:02:12 85° WNW 13:06:35 10° SSW
Cosmos 1328 Rocket 3.4 13:04:49 26° NNW 13:07:09 64° W 13:11:24 10° S
SL-19 R/B 4.2 13:03:15 10° S 13:08:50 77° WSW 13:14:26 10° NNW
SAR-Lupe-3 4.5 13:06:21 10° N 13:09:55 62° WNW 13:13:28 10° SSW
CZ-2C R/B 4.2 13:06:38 10° NNE 13:11:28 45° E 13:16:32 10° S
ASTRO E2 4.3 13:09:10 13° SW 13:12:05 30° SSE 13:15:36 10° E
Lacrosse 5 3.3 13:08:04 10° S 13:12:46 40° ESE 13:17:31 10° NE
Envisat 3.1 13:09:15 10° N 13:14:09 50° WNW 13:19:01 10° SSW
Centaur D-1A AC-35 3.5 13:12:42 14° SW 13:15:53 32° S 13:19:19 10° ESE
SL-8 R/B 3.9 13:16:15 24° NW 13:19:04 64° NE 13:23:47 10° ESE
COSMO-SKYMED 1 2.5 13:15:48 10° S 13:20:06 75° WSW 13:24:27 10° NNW
FALCON 9 R/B 4.1 13:03:47 22° WNW 13:21:54 87° SSW 13:28:47 10° ESE
ATLAS 3B R/B 2.7 13:16:56 10° SW 13:23:11 51° NW 13:29:43 10° NNE
Landsat 5 3.6 13:20:16 10° SSE 13:24:46 87° ENE 13:29:15 10° NNW
ATLAS 5 CENTAUR R/B 2.9 13:27:14 17° NNW 13:27:14 17° NNW 13:29:05 10° N
Cosmos 1408 Rocket 4.0 13:23:05 10° SSW 13:27:03 37° W 13:31:04 10° NNW
CZ-4C R/B 3.2 13:24:48 10° SSE 13:27:52 60° ENE 13:30:56 10° N
NOAA 11 4.2 13:22:52 10° NNE 13:28:23 90° WNW 13:33:53 10° SSW
Cosmos 1340 Rocket 2.9 13:31:58 10° SSW 13:35:46 49° W 13:39:40 10° N
Cosmos 1743 Rocket 3.6 13:34:26 10° SSW 13:38:44 57° W 13:43:02 10° N
Cosmos 2026 Rocket 4.4 13:33:14 10° S 13:39:31 70° E 13:45:46 10° N
SJ 16-02 2.3 13:39:12 10° WSW 13:42:47 24° WNW 13:46:21 10° NNW
Cosmos 2195 Rocket 4.5 13:38:03 10° S 13:44:11 89° W 13:50:18 10° N
Alouette 2 Rocket 3.9 13:40:59 10° N 13:44:29 59° E 13:48:35 10° SSE
CZ-4B R/B 2.5 13:42:58 10° N 13:46:34 81° WNW 13:50:16 10° SSW
H-2A R/B 4.5 13:48:55 13° W 13:48:55 13° W 13:50:08 10° WSW
OAO 2 Rocket 3.3 13:43:49 10° WSW 13:49:04 84° NNW 13:54:11 10° ENE
USA 215 4.4 13:47:56 10° E 13:53:46 36° NE 13:59:36 10° NNW
Cosmos 1515 Rocket 4.2 13:50:02 10° NNW 13:53:55 33° W 13:57:48 10° SSW
DELTA 2 R/B (1) 4.2 13:52:54 11° WNW 13:57:57 46° NNE 14:03:17 10° E
Meteor 1-31 Rocket 4.4 13:57:37 10° NNW 13:59:55 15° WNW 14:02:13 10° WSW
Cosmos 2228 Rocket 3.2 13:55:27 10° N 13:59:59 85° E 14:04:33 10° S
SL-27 R/B 3.8 14:01:40 10° NW 14:04:26 22° W 14:07:10 10° SSW
CZ-4B R/B 3.6 14:02:27 10° SE 14:05:15 25° ENE 14:08:00 10° NNE
Meteor 1-27 Rocket 4.1 13:59:53 10° NNW 14:05:17 45° W 14:10:47 10° SSW
Sich 1 3.0 14:01:42 10° SSW 14:05:55 59° W 14:10:07 10° N
SL-4 R/B 3.2 14:04:15 10° WNW 14:06:44 18° NNW 14:09:18 10° NNE
CZ-2D R/B 4.1 14:07:42 10° NNE 14:11:25 55° E 14:15:07 10° S
Cosmos 44 3.7 14:07:08 10° SSW 14:12:32 83° ESE 14:17:50 10° NNE
Cosmos 1939 Rocket 2.9 14:09:16 10° N 14:13:02 52° WNW 14:16:46 10° SSW
NOAA 12 4.3 14:11:47 10° N 14:16:49 48° WNW 14:21:49 10° SSW
Cosmos 2297 Rocket 3.4 14:12:27 10° N 14:17:49 42° ENE 14:23:08 10° SE
